Alma, MI

11:07 AM EST on February 13, 2016 (GMT -0500)
Gratiot Community

Weather History for KAMN - April, 2013

Change the Weather History Date:

Saturday, April 6, 2013

  Actual Average Record
Temperature  
Mean Temperature 42 °F -  
Max Temperature 54 °F 49 °F 80 °F (1988)
Min Temperature 29 °F 30 °F 12 °F (1999)
Degree Days  
Heating Degree Days 24    
Moisture  
Dew Point 25 °F    
Average Humidity 59    
Maximum Humidity 89    
Minimum Humidity 27    
Precipitation  
Precipitation 0.00 in - - ()
Sea Level Pressure  
Sea Level Pressure 30.03 in    
Wind  
Wind Speed 8 mph (SE)    
Max Wind Speed 17 mph    
Max Gust Speed 28 mph    
Visibility 10 miles    
Events Rain , Snow    
Averages and records for this station are not official NWS values.
T = Trace of Precipitation, MM = Missing Value Source: NWS Daily Summary

Daily Weather History Graph

Daily Weather History Graph

Search for Another Location

Airport or City:

Trip Planner

Search our weather history database for the weather conditions in past years. The results will help you decide how hot, cold, wet, or windy it might be!

Date:

Astronomy

Apr. 06, 2013 Rise Set
Actual Time 7:11 AM EDT 8:11 PM EDT
Civil Twilight 6:42 AM EDT 8:40 PM EDT
Nautical Twilight 6:07 AM EDT 9:15 PM EDT
Astronomical Twilight 5:31 AM EDT 9:51 PM EDT
Moon 5:00 AM EDT (4/6) 4:33 PM EDT (4/6)
Length of Visible Light 13h 58m
Length of Day
13h 00m
Waning Crescent, 15% of the Moon is Illuminated
Apr 6
Waning Crescent
Apr 10
New
Apr 18
First Quarter
Apr 25
Full
May 2
Last Quarter

Hourly Weather History & Observations

Time (EDT) Temp. Windchill Dew Point Humidity Pressure Visibility Wind Dir Wind Speed Gust Speed Precip Events Conditions
12:15 AM 31.8 °F 27.3 °F 22.8 °F 69% 30.20 in 10.0 mi NE 4.6 mph - N/A   Clear
12:35 AM 31.5 °F 26.8 °F 23.5 °F 73% 30.20 in 10.0 mi NE 4.6 mph - N/A   Clear
12:55 AM 30.7 °F 26.0 °F 24.8 °F 79% 30.20 in 10.0 mi NE 4.6 mph - N/A   Scattered Clouds
1:15 AM 30.4 °F 26.9 °F 23.5 °F 76% 30.20 in 10.0 mi NNE 3.5 mph - N/A   Clear
1:35 AM 29.1 °F - 24.1 °F 81% 30.21 in 10.0 mi Calm Calm - N/A   Scattered Clouds
1:50 AM 30.2 °F - 24.8 °F 80% 30.21 in 10.0 mi Calm Calm - N/A   Mostly Cloudy
2:10 AM 29.8 °F - 25.0 °F 82% 30.21 in 10.0 mi Calm Calm - N/A   Overcast
2:30 AM 29.3 °F 25.6 °F 24.8 °F 83% 30.21 in 10.0 mi NE 3.5 mph - N/A   Overcast
2:51 AM 29.5 °F 25.9 °F 26.6 °F 89% 30.21 in 10.0 mi NE 3.5 mph - N/A   Overcast
3:11 AM 30.9 °F 27.5 °F 26.6 °F 84% 30.21 in 10.0 mi NE 3.5 mph - N/A   Overcast
3:31 AM 30.6 °F 24.7 °F 27.1 °F 87% 30.20 in 10.0 mi ENE 5.8 mph - N/A   Overcast
3:51 AM 31.1 °F 25.4 °F 27.5 °F 87% 30.20 in 10.0 mi East 5.8 mph - N/A   Overcast
4:11 AM 31.6 °F 23.7 °F 27.3 °F 84% 30.20 in 10.0 mi East 9.2 mph - N/A   Overcast
4:31 AM 31.8 °F - 27.3 °F 83% 30.19 in 10.0 mi Calm Calm - N/A   Overcast
4:51 AM 32.0 °F 28.7 °F 27.1 °F 82% 30.19 in 10.0 mi East 3.5 mph - N/A   Overcast
5:11 AM 31.8 °F 28.5 °F 26.8 °F 82% 30.19 in 10.0 mi East 3.5 mph - N/A   Overcast
5:31 AM 32.0 °F 27.5 °F 26.6 °F 80% 30.19 in 10.0 mi ESE 4.6 mph - N/A   Overcast
5:52 AM 32.0 °F 28.7 °F 26.6 °F 80% 30.19 in 10.0 mi ESE 3.5 mph - N/A   Overcast
6:12 AM 32.0 °F 27.5 °F 26.4 °F 80% 30.19 in 10.0 mi ESE 4.6 mph - N/A   Overcast
6:32 AM 32.0 °F 26.4 °F 26.6 °F 80% 30.19 in 10.0 mi ESE 5.8 mph - N/A   Overcast
6:52 AM 32.2 °F 26.7 °F 26.6 °F 80% 30.19 in 10.0 mi ESE 5.8 mph - N/A   Overcast
7:12 AM 32.2 °F 26.7 °F 26.8 °F 80% 30.19 in 10.0 mi ESE 5.8 mph - N/A   Overcast
7:32 AM 32.2 °F 25.8 °F 27.1 °F 82% 30.19 in 10.0 mi ESE 6.9 mph - N/A   Overcast
7:52 AM 32.2 °F 25.0 °F 26.8 °F 80% 30.19 in 10.0 mi ESE 8.1 mph - N/A   Overcast
8:12 AM 32.4 °F 26.9 °F 27.0 °F 80% 30.19 in 10.0 mi ESE 5.8 mph - N/A   Overcast
8:32 AM 32.5 °F 24.8 °F 26.4 °F 78% 30.18 in 10.0 mi SE 9.2 mph 17.3 mph N/A Snow Light Snow
8:53 AM 32.9 °F 25.9 °F 26.4 °F 77% 30.19 in 10.0 mi SE 8.1 mph - N/A   Overcast
9:13 AM 33.1 °F 24.9 °F 26.2 °F 76% 30.18 in 10.0 mi SE 10.4 mph 18.4 mph N/A   Overcast
9:33 AM 33.4 °F 25.9 °F 26.1 °F 74% 30.17 in 10.0 mi SE 9.2 mph 16.1 mph N/A Snow Light Snow
9:53 AM 33.8 °F 26.4 °F 25.7 °F 72% 30.17 in 10.0 mi ESE 9.2 mph 17.3 mph N/A   Overcast
10:13 AM 35.2 °F 26.2 °F 25.7 °F 68% 30.16 in 10.0 mi SE 13.8 mph 20.7 mph N/A   Mostly Cloudy
10:33 AM 36.0 °F 28.0 °F 25.2 °F 65% 30.15 in 10.0 mi ESE 11.5 mph 16.1 mph N/A   Mostly Cloudy
10:53 AM 37.4 °F 29.3 °F 25.0 °F 61% 30.14 in 10.0 mi SE 12.7 mph - N/A   Mostly Cloudy
11:13 AM 37.8 °F 29.8 °F 24.4 °F 59% 30.14 in 10.0 mi SE 12.7 mph 20.7 mph N/A   Mostly Cloudy
11:33 AM 39.2 °F 31.6 °F 24.3 °F 55% 30.13 in 10.0 mi SE 12.7 mph 19.6 mph N/A   Scattered Clouds
11:54 AM 39.7 °F 32.3 °F 24.1 °F 54% 30.12 in 10.0 mi SSE 12.7 mph 25.3 mph N/A   Clear
12:14 PM 40.8 °F 32.3 °F 24.3 °F 52% 30.11 in 10.0 mi SE 17.3 mph 23.0 mph N/A   Clear
12:34 PM 41.7 °F 33.7 °F 24.6 °F 51% 30.10 in 10.0 mi SE 16.1 mph 24.2 mph N/A   Scattered Clouds
12:54 PM 42.4 °F 35.7 °F 24.4 °F 49% 30.09 in 10.0 mi SE 12.7 mph 20.7 mph N/A   Scattered Clouds
1:14 PM 43.2 °F 36.2 °F 25.7 °F 50% 30.08 in 10.0 mi SSE 13.8 mph 21.9 mph N/A   Mostly Cloudy
1:34 PM 44.1 °F 37.4 °F 25.7 °F 49% 30.06 in 10.0 mi SE 13.8 mph 25.3 mph N/A   Scattered Clouds
1:54 PM 45.3 °F 39.0 °F 23.2 °F 42% 30.05 in 10.0 mi SE 13.8 mph 25.3 mph N/A   Scattered Clouds
2:14 PM 45.7 °F 38.8 °F 22.3 °F 40% 30.04 in 10.0 mi SE 16.1 mph 23.0 mph N/A   Scattered Clouds
2:35 PM 45.9 °F 39.4 °F 21.7 °F 38% 30.02 in 10.0 mi SE 15.0 mph 25.3 mph N/A   Scattered Clouds
2:55 PM 46.9 °F - 19.6 °F 34% 30.00 in 10.0 mi SSE 16.1 mph 26.5 mph N/A   Clear
3:15 PM 48.2 °F - 19.8 °F 32% 29.98 in 10.0 mi SE 17.3 mph 27.6 mph N/A   Scattered Clouds
3:35 PM 48.2 °F - 19.9 °F 33% 29.97 in 10.0 mi SE 15.0 mph 23.0 mph N/A   Mostly Cloudy
3:55 PM 48.7 °F - 20.3 °F 33% 29.96 in 10.0 mi SSE 13.8 mph 25.3 mph N/A   Overcast
4:15 PM 50.0 °F - 21.2 °F 32% 29.94 in 10.0 mi ESE 15.0 mph 20.7 mph N/A   Overcast
4:35 PM 50.5 °F - 20.8 °F 31% 29.92 in 10.0 mi SE 13.8 mph 19.6 mph N/A   Mostly Cloudy
4:55 PM 51.8 °F - 20.8 °F 30% 29.89 in 10.0 mi SE 15.0 mph 24.2 mph N/A   Scattered Clouds
5:15 PM 54.1 °F - 21.0 °F 27% 29.87 in 10.0 mi SE 17.3 mph 23.0 mph N/A   Scattered Clouds
5:36 PM 53.1 °F - 20.8 °F 28% 29.85 in 10.0 mi SE 13.8 mph 24.2 mph N/A   Scattered Clouds
5:51 PM 54.3 °F - 21.0 °F 27% 29.85 in 10.0 mi SE 17.3 mph 27.6 mph N/A   Scattered Clouds
6:11 PM 53.4 °F - 21.6 °F 29% 29.83 in 10.0 mi SE 16.1 mph 25.3 mph N/A   Clear
6:31 PM 52.2 °F - 21.9 °F 31% 29.82 in 10.0 mi SE 10.4 mph 20.7 mph N/A   Clear
6:51 PM 52.5 °F - 21.6 °F 30% 29.82 in 10.0 mi SSE 11.5 mph 18.4 mph N/A   Clear
7:11 PM 52.7 °F - 21.9 °F 30% 29.82 in 10.0 mi SSE 10.4 mph 18.4 mph N/A   Scattered Clouds
7:31 PM 51.4 °F - 23.7 °F 34% 29.82 in 10.0 mi SE 6.9 mph - N/A   Mostly Cloudy
7:51 PM 51.1 °F - 24.1 °F 35% 29.82 in 10.0 mi SE 8.1 mph - N/A   Overcast
8:11 PM 51.1 °F - 23.9 °F 35% 29.80 in 10.0 mi SE 9.2 mph - N/A   Overcast
8:32 PM 50.7 °F - 25.7 °F 38% 29.79 in 10.0 mi SE 11.5 mph - N/A   Overcast
8:52 PM 49.5 °F - 26.2 °F 40% 29.78 in 10.0 mi SE 12.7 mph 21.9 mph N/A Rain Light Rain
9:12 PM 46.8 °F - 31.3 °F 55% 29.74 in 10.0 mi ESE 15.0 mph 20.7 mph N/A Rain Light Rain
9:32 PM 46.8 °F - 30.9 °F 54% 29.74 in 10.0 mi SE 15.0 mph 20.7 mph N/A Rain Light Rain
9:52 PM 46.8 °F - 30.9 °F 54% 29.72 in 10.0 mi SE 13.8 mph 19.6 mph N/A   Overcast
10:12 PM 46.4 °F 41.5 °F 31.8 °F 57% 29.71 in 10.0 mi SE 10.4 mph 20.7 mph N/A   Overcast
10:32 PM 46.8 °F - 31.1 °F 55% 29.70 in 10.0 mi SSE 8.1 mph - N/A   Overcast
10:52 PM 46.6 °F - 32.2 °F 57% 29.70 in 10.0 mi SE 5.8 mph - N/A Rain Light Rain
11:12 PM 48.2 °F - 32.0 °F 54% 29.69 in 10.0 mi SSE 9.2 mph - N/A   Overcast
11:32 PM 52.5 °F - 29.1 °F 41% 29.69 in 10.0 mi South 13.8 mph - N/A   Overcast
11:53 PM 50.2 °F - 33.6 °F 53% 29.70 in 10.0 mi South 11.5 mph - N/A Rain Light Rain